Regional Weather Roundup
Issued by NWS Albany, NY

Current Version | Previous Version | Graphics & Text | Print | Product List | Glossary Off
Versions: 1 2 3 4 5 6 7 8 9 10 11 12 13 14 15 16 17 18 19 20 21 22 23 24 25 26 27 28 29 30 31 32 33 34 35 36 37 38 39 40 41 42 43 44 45 46 47 48 49 50

818
ASUS41 KALY 251610
RWRALY

NEW YORK STATE HOURLY WEATHER ROUNDUP
NATIONAL WEATHER SERVICE ALBANY NY
1200 PM EDT SAT MAR 25 2017

NOTE: "FAIR" INDICATES FEW OR NO CLOUDS BELOW 12,000 FEET WITH NO
SIGNIFICANT WEATHER AND/OR NO OBSTRUCTIONS TO VISIBILITY.

NYZ032-033-038>043-046>054-057>066-NYZ062>081-082-084-251700-
EAST


CITY           SKY/WX    TMP DP  RH WIND       PRES   REMARKS
ALBANY         LGT RAIN  37  31  78 N10       30.28R WCI  30
GLENS FALLS    LGT SNOW  34  31  88 N3        30.30R VSB 3/4
POUGHKEEPSIE   CLOUDY    41  36  82 NW10      30.22R
NEWBURGH       CLOUDY    45  39  81 NE9       30.21S
MONTGOMERY     CLOUDY    43  37  79 N12       30.20R
WHITE PLAINS   CLOUDY    53  40  61 N8        30.16R
ISLIP          PTSUNNY   61  40  45 N8        30.16S
NEW YORK CITY  CLOUDY    55  37  50 E9        30.17R
CENTRAL PARK   CLOUDY    58  38  47 CALM      30.19R
$$

NYZ005>009-017-018-044>046-055-056-251700-
CENTRAL


CITY           SKY/WX    TMP DP  RH WIND       PRES   REMARKS
FULTON         LGT RAIN  35  33  92 N10       30.29R FOG     WCI  27
SYRACUSE       LGT RAIN  35  35 100 N5        30.26S FOG     WCI  31
ROME           LGT RAIN  36  35  96 W3        30.28R
ELMIRA         CLOUDY    38  33  82 NE12      30.24R WCI  30
BINGHAMTON     FOG       36  36 100 N7        30.19R VSB 1   WCI  30
MONTICELLO     CLOUDY    43  41  93 NE5       30.19R
$$

NYZ026>034-041>043-087-251700-
NORTH


CITY           SKY/WX    TMP DP  RH WIND       PRES   REMARKS
WATERTOWN      CLOUDY    35  33  92 NE13      30.32R WCI  26
FORT DRUM      NOT AVBL
MASSENA        CLOUDY    36  30  79 N10       30.36R WCI  28
SARANAC LAKE   CLOUDY    32  28  85 NE10      30.22S WCI  24
PLATTSBURGH    CLOUDY    34  28  79 N10       30.33R WCI  26
$$

NYZ001>004-010>016-019>021-085-251700-
WEST


CITY           SKY/WX    TMP DP  RH WIND       PRES   REMARKS
NIAGARA FALLS  CLOUDY    37  33  85 E14       30.30S WCI  28
BUFFALO        LGT RAIN  35  32  88 NE14      30.29R WCI  26
DUNKIRK        MIX PCPN  36  35  96 NE13      30.26R WCI  27
JAMESTOWN      CLOUDY    39  36  87 NW13      30.19R WCI  32
WELLSVILLE     LGT RAIN  42  38  85 N8        30.19R FOG
ROCHESTER      RAIN      36  33  89 E9        30.33R WCI  29
PENN YAN       LGT RAIN  35  31  85 VRB3      30.27R
$$

             KEY
       WCI = WIND CHILL INDEX
       VSB = VISIBILITY
       HX  = HEAT INDEX
$$




USA.gov is the U.S. government's official web portal to all federal, state and local government web resources and services.